Content
SEND FEEDBACK

Daily
Averages
Monthly
Summary
United Kingdom

BALLYKELLY, NORTHERN IRELAND


Home > Europe > United Kingdom > Northern Ireland
Elevation: 13 feet     Latitude: 55 03N     Longitude: 007 00W

WEATHER
 
SELECT A DAY
Number of Records: 133,389;   Date Range: 7/1/96 - 12/20/14
 
SHARE

PRINT THIS DATA

[ ← Previous Day ]
WEATHER ALMANAC - MARCH 22, 2013
[ Next Day → ]
[ °C ]   °F
Weather ElementAverageHighLow
Temperature37.3 °F39.2 °F (9:20 am)35.6 °F (10:20 am)
Dewpoint33.7 °F33.8 °F (7:20 am)32 °F (6:50 am)
Humidity87.2 %93 % (10:20 am)81 % (6:50 am)
Barometer29.60 in29.68 in (6:50 pm)29.56 in (6:50 am)
Wind Speed29.8 mph41.4 mph (6:50 am)
Wind Gust58.7 mph (7:20 am)
Weather ElementAverage
Visibility5.3 mi
Wind DirectionE (94.8 °)

Weather ElementTotal
Precipitation---
Heating Degree Days27.6 (Base 65)
Averaged from 25 records on March 22, 2013
WEATHER CONDITIONS BREAKOUT
WIND DIRECTION BREAKOUT
WEATHER BY HOUR - MARCH 22, 2013
[ °C ]   °F
Local TimeTemperatureDewpointHumidityBarometerVisibilityWind DirectionWind SpeedGust SpeedPrecipitationEventsConditions
6:50 AM37.4 °F32.0 °F81 %29.56 in6.2 miESE (120°)41.4 mph55.2 mphMostly Cloudy
7:20 AM37.4 °F33.8 °F87 %29.59 in6.2 miESE (120°)41.4 mph58.7 mphMostly Cloudy
7:50 AM37.4 °F33.8 °F87 %29.62 in5.6 miEast (100°)33.4 mph44.9 mphMostly Cloudy
8:20 AM37.4 °F33.8 °F87 %29.59 in6.2 miEast (100°)32.2 mph44.9 mphMostly Cloudy
8:50 AM37.4 °F33.8 °F87 %29.59 in6.2 miEast (90°)35.7 mph48.3 mphOvercast
9:20 AM39.2 °F33.8 °F81 %29.59 in6.2 miEast (90°)31.1 mphRainLight Rain
9:50 AM37.4 °F33.8 °F87 %29.59 in5.0 miEast (90°)29.9 mph42.6 mphRainRain
10:20 AM35.6 °F33.8 °F93 %29.59 in4.3 miEast (100°)31.1 mph42.6 mphRainRain
10:50 AM37.4 °F33.8 °F87 %29.56 in5.6 miEast (100°)34.5 mph50.6 mphRainLight Rain
11:20 AM37.4 °F33.8 °F87 %29.59 in5.6 miEast (100°)33.4 mph50.6 mphRainLight Rain
11:50 AM37.4 °F33.8 °F87 %29.59 in5.0 miEast (100°)31.1 mph42.6 mphRainLight Rain
12:20 PM37.4 °F33.8 °F87 %29.62 in6.2 miEast (90°)28.8 mph44.9 mphMostly Cloudy
12:50 PM37.4 °F33.8 °F87 %29.62 in6.2 miEast (80°)25.3 mph40.3 mphMostly Cloudy
1:20 PM37.4 °F33.8 °F87 %29.59 in6.2 miEast (80°)23.0 mph35.7 mphRain-SnowLight Rain
1:50 PM37.4 °F33.8 °F87 %29.56 in6.2 miEast (90°)29.9 mph43.7 mphRain-SnowLight Rain
2:20 PM37.4 °F33.8 °F87 %29.56 in5.0 miESE (110°)32.2 mph47.2 mphRainLight Rain
2:50 PM37.4 °F33.8 °F87 %29.56 in5.0 miESE (110°)32.2 mph44.9 mphRain-SnowLight Rain
3:20 PM35.6 °F33.8 °F93 %29.56 in3.7 miESE (110°)29.9 mph42.6 mphRain-SnowRain
3:50 PM35.6 °F33.8 °F93 %29.56 in2.8 miEast (100°)28.8 mph47.2 mphRain-SnowRain
4:20 PM37.4 °F33.8 °F87 %29.59 in3.7 miEast (90°)24.2 mph38.0 mphRain-SnowLight Rain
4:50 PM37.4 °F33.8 °F87 %29.62 in5.0 miEast (90°)23.0 mph36.8 mphRainLight Rain
5:20 PM37.4 °F33.8 °F87 %29.62 in5.0 miEast (90°)27.6 mph43.7 mphRainLight Rain
5:50 PM37.4 °F33.8 °F87 %29.65 in5.0 miENE (70°)21.9 mphRainLight Rain
6:20 PM37.4 °F33.8 °F87 %29.65 in4.3 miENE (60°)20.7 mph33.4 mphRainLight Rain
6:50 PM37.4 °F33.8 °F87 %29.68 in5.6 miEast (90°)23.0 mph39.1 mphMostly Cloudy
Hourly data recorded from EGAE, located miles away from Ballykelly, Northern Ireland







STORIES FROM OUR PARTNERS